Location: Bergnershof
(48.9468°N, 10.9431°E)
Time: 11:40:46
(UTC+00:00)

SeaSat 1 - Pass Details

Date: 03 March 2021
Orbit: 744 x 747 km, 108.0° (Epoch: 12 April)

Event Time Altitude Azimuth Distance (km) Brightness Sun altitude
Rises 17:55:03 0° 34° (NE) 3,202 5.4 -9.3°
Reaches altitude 10° 17:57:28 10° 42° (NE) 2,274 4.6 -9.7°
Maximum altitude 18:02:06 39° 112° (ESE) 1,107 2.9 -10.5°
Drops below altitude 10° 18:06:42 10° 181° (S) 2,260 4.9 -11.3°
Sets 18:09:05 0° 189° (S) 3,179 5.8 -11.6°
